Simultaneous Nadir Overpasses (SNOs) Predictions

Prediction of SNOs between GOES-16 and TERRA Satellite Orbit:

Table of predicted SNOs for the next 14.0 days since TLE Epoch: 2/25/2017
Index Date Time (GOES-16) GOES-16 Lat,Lon TERRA Lat,Lon Distance(km) Time Diff (sec)
1 02/26/2017 16:22:13 0.03, -89.51 -0.32, -87.72 202.28 80
2 02/27/2017 04:43:38 -0.03, -89.47 -0.75, -92.92 391.81 80
3 03/01/2017 04:31:28 -0.03, -89.48 -0.12, -89.97 55.56 80
4 03/03/2017 04:16:38 -0.03, -89.49 0.48, -87.01 280.61 80
5 03/03/2017 16:37:54 0.03, -89.52 0.62, -92.17 302.12 80
6 03/05/2017 16:28:25 0.02, -89.53 -0.02, -89.23 33.97 80
7 03/07/2017 16:16:17 0.02, -89.54 -0.70, -86.29 369.91 80
8 03/08/2017 04:37:41 -0.01, -89.51 -0.46, -91.47 223.92 80
9 03/10/2017 04:22:53 -0.01, -89.52 0.20, -88.53 112.53 80
10 03/10/2017 16:44:09 0.00, -89.56 0.87, -93.70 470.48 80




NCC Satellite Simultaneous Nadir Overpasses (SNOs) Prediction Service
